Showing default

VIASAT 2, 42740

Orbit data source: Space-Track

VIASAT 2, 42740 is a payload satellite owned by ViaSat (US) in GEO that was launched on Thu, 01 Jun 2017 UTC via an ARIANE 5ECA launch vehicle from the French Guiana (FRGUI). Payload-class satellites include a variety of spacecraft equipped with specific instruments for various scientific and technological missions. These include communications satellites like Starlink; space stations such as the ISS; scientific satellites like the Hubble; Earth observation satellites from companies like Planet Labs, Umbra, and HawkEye 360; GPS; miniature CubeSats for education and research; and military/defense satellites.

Loading next visibility...
Identifier
42740, 2017-029A
Orbit
GEO
Country
Flag of USUS
Related business
Manufacturer
Boeing/ES
Mission
Operational Commercial Communications
Bus & Motor
BSS-702HP, R-4D
Mass
6,418 kg wet, 3,500 kg dry
Launch date (UTC)
2017-06-01 (9 years ago)
Launch vehicle
ARIANE 5ECA
Launch site
French Guiana (FRGUI)
Object type
Payload
Rocket body
Debris
Shape & HBR
Box + 2 Pan, 17.0 m
Radar Cross Section
31.184 m², Large (>1 m²)

Expand to show TLE details & history
Last TLE update: 16 hours ago

TLE from 16 hours ago
0 VIASAT 2
1 42740U 17029A   25341.19755294 -.00000260  00000-0  00000-0 0  9992
2 42740   0.0134 300.0883 0000442 186.5254 310.7984  1.00271384 31271
Epoch: 2025-12-07T04:44Z
TLE epoch observation values (Epoch: 2025-12-07T04:44:28.574Z)
Latitude
0.02853°
Longitude
-69.93433°
Altitude
35,784.971 km
Speed
3.075 km/s
True Right ascension
05h 09m 35s
True Declination
0° 01' 43"
Sunlit
Object was in daylight at epoch
Visualization orbit readout
Latitude
Unknown
Longitude
Unknown
Altitude
Unknown
Speed
Unknown
Apparent Right ascension
Unknown
Apparent Declination
Unknown
Sunlit
N/A
Visualization observer readout
Local Sidereal Time
18:32:34
Azimuth
Unknown
Elevation
Unknown
Doppler factor
Unknown
Orbital elements
Apogee altitude
35,789.641 km
Perigee altitude
35,785.914 km
Semi-major axis
42,165.915 km
Eccentricity
0.00004
Inclination
0.0134°
RAAN
300.0883°
Arg. of periapsis
186.5254°
True anomaly
310.79457°
Mean anomaly
310.7984°
Eccentric anomaly
310.79648°
Mean motion
0.25067 °/min
Orbital period
1,436.16 mins
BSTAR
0
Loading maneuver chart data...
Computing Atmospheric mass density...
Loading historical data...
Loading historical data...
Loading historical data...
Loading historical data...
Loading historical data...
Loading historical data...
Loading historical data...
Other satellites on launch #29 in the year 2017 (2017-06-01 UTC)

Documentation

Showing up to 5 results
|